Lid_Strength_Index
3 3 3 3 3 3 3 3 3 3 3 5 5 5 5 4 3 4 5 4 3 -0 -0 1 1 2 1 4 4 3 7 8 7 7 6 4 5 3 3 4 3 3 3 2 1
4 3 3 3 3 3 3 3 3 3 3 3 3 3 4 4 5 6 2 1 -1 -1 5 4 3 3 4 4 4 5 8 7 5 5 5 4 4 4 4 4 4 3 2 1 1
4 4 4 4 4 4 4 4 4 4 3 3 3 3 3 3 7 7 1 0 0 0 5 4 3 3 5 4 4 5 8 5 5 4 4 4 4 3 4 5 4 4 3 2 2
4 4 4 3 3 3 4 4 4 4 4 4 4 4 3 4 9 2 3 2 1 2 5 6 6 6 6 7 5 6 5 5 4 4 4 5 4 4 4 4 3 2 2 2 2
4 3 4 3 3 3 3 4 4 4 4 3 4 4 5 7 7 2 -0 1 3 3 3 6 7 6 6 6 5 6 5 4 4 4 4 4 5 5 4 3 2 2 2 2 2
4 3 3 3 3 3 3 3 3 3 3 3 3 3 5 10 4 4 3 3 2 4 3 4 6 5 5 5 5 4 4 4 4 4 4 5 5 4 4 3 3 3 3 2 2
4 4 4 4 4 4 3 3 3 3 3 3 3 3 6 8 4 4 4 4 4 4 5 2 4 5 5 6 4 5 6 5 5 4 5 4 6 6 3 3 3 3 3 2 2
4 3 4 4 4 3 4 3 4 4 3 3 3 4 8 4 4 5 4 5 4 4 4 4 3 5 5 4 5 7 6 9 6 5 5 5 8 5 3 4 4 3 3 3 2
3 3 4 4 3 3 3 3 3 3 3 3 4 5 9 3 6 4 4 6 5 4 4 4 5 6 5 7 8 7 10 9 8 5 5 6 8 5 3 4 4 4 3 3 3
3 4 3 4 4 3 4 4 3 3 3 3 4 7 6 9 7 5 4 4 6 5 6 6 6 8 8 8 11 10 9 8 9 6 6 7 7 5 4 4 4 4 3 3 3
4 4 4 4 4 4 4 4 6 7 5 7 8 8 8 6 6 7 6 6 5 6 9 6 9 11 9 8 8 8 8 8 7 6 6 7 7 6 4 4 4 4 4 3 3
4 4 4 4 4 4 4 7 7 6 10 7 7 8 7 6 10 8 6 8 8 9 8 8 10 8 7 7 8 8 9 9 7 6 7 7 7 6 5 5 4 4 4 3 3
4 4 4 3 4 3 4 4 3 3 10 8 6 7 7 6 9 9 7 8 10 9 8 9 9 6 8 8 8 8 9 8 8 7 6 7 8 7 5 4 4 4 3 3 3
4 3 3 2 3 2 3 1 0 0 10 9 7 6 5 4 7 5 5 7 9 11 8 8 8 7 8 8 8 10 7 7 8 8 11 7 12 8 6 6 5 4 4 4 3
3 2 1 0 0 2 0 -1 -1 1 15 7 6 1 3 5 5 5 2 5 9 9 8 11 9 9 8 9 7 9 6 7 7 8 10 9 10 9 7 8 6 5 4 3 3
1 -0 -0 -1 -0 -0 -1 -1 1 11 15 9 6 7 6 5 5 4 4 3 4 7 8 9 6 7 8 6 6 6 7 7 7 8 12 10 10 10 9 7 6 5 4 4 3
-1 -1 -1 -1 2 -2 -1 2 12 15 8 9 8 6 7 7 7 6 7 8 9 10 10 10 8 7 6 7 6 6 8 12 13 13 14 9 10 9 6 6 5 5 4 3 3
-1 -0 0 -1 -1 -2 1 8 15 10 9 6 7 7 9 7 7 8 7 9 7 8 11 11 12 9 7 8 8 8 8 11 16 14 12 9 11 9 5 5 4 4 4 3 4
-0 -1 0 -1 -2 -1 5 13 13 9 7 8 7 10 9 7 8 8 8 8 8 8 14 11 11 7 6 6 6 8 10 7 10 9 11 10 8 6 5 5 5 4 4 4 4
1 1 1 -1 -2 1 7 11 9 6 6 7 11 10 11 9 10 9 9 8 8 7 8 10 14 7 6 6 6 7 6 10 10 14 14 11 11 10 7 6 5 5 4 4 4
1 3 1 -2 -1 5 11 9 7 5 5 8 9 10 9 10 9 9 9 7 7 7 7 8 12 11 7 8 9 8 9 8 8 10 13 14 11 6 7 6 5 5 4 4 4
2 6 -0 -1 7 6 9 6 5 6 5 6 7 8 9 9 10 9 9 8 6 6 9 7 10 14 11 7 6 6 8 8 11 12 10 10 11 6 5 5 5 5 4 4 4
4 3 0 0 10 9 7 6 6 6 6 7 8 7 7 9 12 9 9 8 7 8 10 9 11 15 15 10 7 8 7 7 8 8 11 12 11 5 5 5 4 5 5 4 4
3 8 3 2 4 7 8 8 8 5 6 5 6 6 9 9 7 10 10 8 7 7 7 8 11 12 17 12 8 9 8 8 8 10 10 10 9 7 6 6 5 5 5 4 4
3 7 5 9 7 7 7 8 9 9 6 5 7 7 8 10 9 11 9 8 7 7 8 10 13 10 11 11 10 8 8 8 9 8 10 9 9 7 6 6 5 5 5 5 4
5 6 4 6 6 7 7 9 9 8 8 8 9 7 7 9 9 11 9 9 12 9 10 9 14 10 11 12 10 10 8 8 8 8 8 8 8 6 5 4 5 5 5 5 4
2 3 5 7 7 8 8 8 8 7 6 6 7 8 9 7 6 5 5 6 7 8 9 11 12 11 14 12 12 12 9 8 8 7 7 9 8 5 6 5 5 4 4 5 4